Regional Weather Roundup
Issued by NWS

Current Version | Previous Version | Graphics & Text | Print | Product List | Glossary On
Versions: 1 2 3 4 5 6 7 8 9 10 11 12 13 14 15 16 17 18 19 20 21 22 23 24 25 26 27 28 29 30 31 32 33 34 35 36 37 38 39 40 41 42 43 44 45 46 47 48 49 50
000
ASUS44 KBMX 191110
RWRAL

ALABAMA REGIONAL WEATHER ROUNDUP
NATIONAL WEATHER SERVICE BIRMINGHAM AL
500 AM CST WED FEB 19 2020

NOTE: "FAIR" INDICATES FEW OR NO CLOUDS BELOW 12,000 FEET
WITH NO SIGNIFICANT WEATHER AND/OR OBSTRUCTIONS TO VISIBILITY.

THE REMARK "TC" DENOTES TEMPERATURE IN DEGREES CELSIUS.

ALZ001>011-014-016>018-020-191200-
NORTH ALABAMA

CITY           SKY/WX    TMP DP  RH WIND       PRES   REMARKS
MUSCLE SHOALS  CLOUDY    44  37  76 NE12      30.31R
HUNTSVILLE     CLOUDY    44  40  85 N9        30.29R
DECATUR        CLOUDY    44  40  85 N12       30.29R
HALEYVILLE     CLOUDY    42  40  92 VRB6G16   30.29R
GADSDEN        CLOUDY    50  46  86 N12G17    30.25R
$$

ALZ012-013-022-023-030>036-040>044-191200-
WEST CENTRAL ALABAMA

CITY           SKY/WX    TMP DP  RH WIND       PRES   REMARKS
TUSCALOOSA     LGT RAIN  50  47  89 N10       30.24R
DEMOPOLIS      NOT AVBL
$$

ALZ015-024>026-033>036-041>044-191200-
CENTRAL ALABAMA

CITY           SKY/WX    TMP DP  RH WIND       PRES   REMARKS
BIRMINGHAM     CLOUDY    49  47  93 N7        30.25R
MONTGOMERY     LGT RAIN  63  61  93 W3        30.17R
SHELBY CO ARPT CLOUDY    52  50  93 N5        30.20R
MAXWELL AFB    LGT RAIN  62  61  97 CALM      30.17R
GREENVILLE     LGT RAIN  62  59  90 CALM      30.17R FOG
SELMA          RAIN      63  61  94 NW6       30.18R
PRATTVILLE     NOT AVBL
BESSEMER       NOT AVBL
TALLADEGA      NOT AVBL
PELL CITY      NOT AVBL
MARION         NOT AVBL
SYLACAUGA      NOT AVBL
$$

ALZ019-021-028-029-037-038-045>048-191200-
EAST CENTRAL ALABAMA

CITY           SKY/WX    TMP DP  RH WIND       PRES   REMARKS
ANNISTON       LGT RAIN  52  49  89 N10       30.22R
ALEXANDER CITY LGT RAIN  59  59  99 CALM      30.18R
AUBURN         LGT RAIN  60  60 100 S3        30.17R VSB 3/4
$$

ALZ051>064-191200-
SOUTHWEST ALABAMA

CITY           SKY/WX    TMP DP  RH WIND       PRES   REMARKS
MOBILE         FAIR      63  62  97 NE5       30.16R
BROOKLEY FIELD FAIR      65  64  97 N9        30.16R
EVERGREEN      CLOUDY    64  60  87 CALM      30.17R
$$

ALZ049-050-065>069-191200-
SOUTHEAST ALABAMA

CITY           SKY/WX    TMP DP  RH WIND       PRES   REMARKS
DOTHAN         MOCLDY    63  61  93 CALM      30.19R
OZARK          FAIR      62  61  98 CALM      30.16R
TROY           CLOUDY    60  60 100 CALM      30.18R FOG
EUFAULA        NOT AVBL
$$



USA.gov is the U.S. government's official web portal to all federal, state and local government web resources and services.